Theta_e
319 319 318 319 318 317 317 317 316 314 314 315 312 308 306 308 309 308 306 308 306 310 307 307 305 306 306 308 305 305 305 305 305 306 307 308 309 310 315 318 322 325 328 328 328 328 329 330 330 330 330 329 328 327 328 327 326 325 325 324 325 325 325 325 323 323 323 322 322 322 322 321 321 321 321 322 321 321 320 319 319 319 319 319 318
317 316 317 318 317 315 316 317 316 315 313 315 311 310 307 306 305 307 307 305 305 307 305 306 308 305 304 305 306 306 304 305 306 305 307 307 309 309 313 315 319 323 326 328 328 328 329 329 329 330 330 330 330 330 330 329 329 329 327 327 327 326 325 325 325 324 324 323 322 322 322 322 321 322 321 322 322 322 321 321 321 320 320 319 319
317 315 315 317 316 315 316 316 315 314 313 314 308 309 306 307 307 307 306 305 305 306 307 306 305 305 303 304 306 304 306 305 305 305 306 308 308 307 309 313 316 320 323 326 328 328 328 329 330 330 331 332 331 331 330 329 329 329 329 329 328 328 328 327 326 326 325 325 324 324 323 323 322 322 322 322 322 322 322 322 321 321 320 320 320
317 316 315 314 313 314 314 313 315 312 312 311 309 307 308 307 307 306 306 307 305 306 304 307 306 305 304 304 303 303 305 304 304 306 306 307 307 308 309 310 312 316 318 321 325 327 328 328 329 329 330 330 331 332 331 331 330 330 330 330 329 329 328 328 328 328 327 326 326 326 324 323 323 323 323 322 322 323 323 322 321 322 321 321 321
317 317 315 315 313 312 310 310 312 311 310 308 308 308 308 308 307 305 306 306 306 308 304 304 304 306 305 306 304 306 304 303 306 303 305 306 307 307 308 309 308 311 313 315 319 322 326 328 328 329 329 329 330 330 330 331 331 330 330 331 331 332 333 332 329 327 328 327 326 326 325 324 323 323 324 323 323 322 322 322 322 322 322 322 321
317 315 315 314 313 312 313 311 310 309 308 307 309 307 308 308 307 307 308 307 306 303 304 307 304 302 302 303 303 305 304 305 305 306 304 306 306 305 308 308 309 309 310 313 315 318 322 325 327 328 329 329 329 330 330 331 331 331 330 331 331 332 332 331 333 330 329 328 328 327 326 325 325 325 324 324 324 323 323 323 323 323 322 322 322
317 317 315 314 314 313 311 313 311 308 308 308 310 307 307 310 306 308 305 305 303 303 304 303 303 307 307 304 306 306 303 305 304 305 305 305 305 304 307 307 308 308 309 309 310 313 317 320 324 326 327 328 328 329 329 330 331 331 332 331 331 332 332 331 331 331 329 330 330 329 326 327 326 326 325 325 325 324 324 323 323 323 323 322 322
316 316 315 314 314 313 314 311 309 308 308 307 307 310 308 307 305 306 307 307 304 307 304 306 307 309 309 308 308 306 305 304 306 306 306 304 306 305 306 306 307 307 308 308 309 309 314 316 319 322 323 325 327 328 329 330 330 331 331 332 332 332 331 331 331 331 331 329 331 330 328 328 327 328 327 326 326 324 324 324 324 324 323 324 324
316 315 315 314 313 313 312 311 308 309 307 306 308 309 309 309 305 303 307 309 308 308 310 309 311 311 311 310 310 307 306 307 307 307 304 303 306 306 305 306 306 307 306 307 308 308 310 313 315 317 318 319 321 324 326 328 329 330 330 330 331 331 330 330 330 330 329 329 329 329 327 329 328 328 327 327 326 326 325 325 324 324 324 324 324
317 316 317 317 316 316 314 311 309 309 309 310 312 310 310 311 312 309 310 311 311 311 312 312 310 311 311 310 310 310 309 307 307 304 304 305 306 306 307 306 304 306 306 307 307 306 307 309 312 313 312 314 317 320 323 325 326 327 328 329 330 331 330 329 329 329 329 328 328 329 328 329 329 328 328 327 326 326 327 326 326 325 324 325 325
320 319 320 319 318 317 316 313 313 313 314 313 314 313 313 313 314 314 312 313 313 312 313 312 311 311 311 311 310 310 308 305 304 304 304 304 305 307 303 305 303 305 305 306 304 305 306 307 307 307 309 311 314 317 319 321 322 323 325 326 328 330 329 329 328 327 328 328 328 328 328 328 328 328 327 326 328 327 325 328 328 326 326 326 325
323 322 321 320 319 318 317 316 315 316 315 314 314 314 314 313 313 314 313 310 310 311 312 311 310 309 308 309 309 306 305 306 304 304 303 302 304 302 303 303 300 304 304 304 303 302 304 305 305 306 307 309 312 313 315 317 316 319 322 325 326 328 328 327 327 327 327 327 327 327 327 327 327 327 327 327 327 326 327 327 330 328 327 326 327
324 323 322 319 320 319 318 317 317 316 316 316 316 316 316 315 313 310 309 311 311 309 306 306 306 308 306 304 305 306 305 303 304 303 302 302 300 300 301 301 302 302 303 300 301 301 302 303 304 304 305 304 306 309 311 313 312 316 320 323 324 325 327 326 326 325 324 324 325 325 326 326 326 326 327 327 327 327 328 329 329 327 327 327 328
324 324 323 322 321 319 318 318 317 315 316 317 316 313 314 313 312 310 309 311 310 306 306 309 308 306 306 306 306 304 303 301 300 302 300 300 299 299 300 300 301 302 301 300 300 300 301 302 302 302 303 303 304 305 306 306 307 312 317 319 321 323 324 324 325 324 322 322 323 323 324 324 325 326 326 327 327 327 328 328 329 329 327 327 327
325 324 324 323 323 321 320 319 318 317 315 314 314 314 314 314 312 313 309 307 308 308 310 313 309 303 306 306 299 301 301 297 293 293 302 300 297 298 298 299 300 299 298 298 299 300 301 300 300 301 301 302 303 303 304 304 304 307 312 313 314 319 322 323 324 322 321 321 322 323 323 324 324 325 326 326 326 327 326 326 327 328 326 327 329
326 325 325 324 323 322 321 319 319 317 317 316 314 314 313 312 312 310 311 309 306 307 307 308 310 310 306 305 303 301 303 298 297 307 304 300 298 299 296 297 297 297 297 299 300 300 300 300 299 300 300 301 301 302 302 303 304 306 307 307 308 315 319 321 323 323 323 322 322 323 323 323 323 324 324 324 325 326 326 326 326 326 326 326 327
327 326 325 325 324 323 322 321 319 318 318 317 315 314 314 313 312 310 311 312 307 303 303 307 309 312 310 304 302 300 301 303 307 308 299 301 300 299 297 296 298 298 297 299 298 299 299 299 299 299 300 300 300 301 301 302 302 302 303 305 308 312 314 320 322 323 323 323 322 322 322 322 323 323 323 324 325 325 325 325 325 325 326 326 326
327 326 325 324 324 324 323 322 320 318 317 317 317 315 314 312 312 313 311 311 313 308 306 306 307 308 310 310 309 306 306 306 307 303 302 301 301 296 297 298 296 296 297 298 300 300 300 300 299 300 299 299 299 300 300 301 300 301 302 304 312 315 316 317 321 322 322 323 323 322 321 321 321 322 322 323 323 323 323 324 324 324 325 325 325
326 326 326 325 325 324 323 323 322 321 318 318 316 315 315 314 313 311 311 309 308 309 310 310 306 307 307 308 306 306 306 305 302 302 302 303 301 302 302 299 297 296 296 298 300 299 300 299 299 299 298 299 298 298 299 300 303 304 307 309 313 314 315 316 317 318 320 321 321 321 321 321 320 320 321 321 322 322 322 322 323 323 323 323 324
326 325 326 325 324 324 324 323 321 319 316 315 316 315 313 313 313 313 308 309 311 311 311 310 310 306 305 306 306 306 305 305 305 304 301 299 304 307 303 300 301 303 301 302 302 302 300 299 300 300 299 297 297 297 298 299 298 299 301 308 313 315 316 316 316 315 316 317 318 319 320 320 320 320 320 320 320 321 321 321 321 321 322 322 322
326 325 325 325 322 323 323 322 321 319 314 316 316 314 314 315 311 309 311 311 311 311 309 310 308 309 303 305 304 304 304 303 302 302 300 297 301 301 304 307 306 304 302 302 304 303 303 303 300 299 299 299 298 298 298 298 298 298 303 308 312 315 315 315 315 314 314 314 316 317 318 319 319 320 320 320 320 320 319 319 320 320 321 321 322
324 325 325 325 324 323 323 322 321 320 315 316 317 315 314 314 314 313 312 311 310 310 310 309 308 308 308 306 303 301 301 300 300 299 299 301 299 300 302 301 300 304 305 304 302 304 304 304 303 301 301 299 299 297 297 297 298 298 300 304 308 311 313 313 313 313 312 312 312 312 314 316 317 318 319 319 318 318 318 318 318 319 320 320 320
323 323 324 324 324 321 322 323 322 318 317 317 315 315 316 315 314 311 308 309 309 309 308 308 308 307 305 307 307 306 305 301 301 300 300 297 298 300 301 302 301 300 299 299 301 302 303 302 301 301 301 301 301 300 298 298 298 299 299 302 304 307 310 312 312 311 311 311 312 311 312 312 313 315 316 316 317 317 318 318 317 318 318 319 319
323 323 322 323 322 323 320 322 320 320 319 318 316 316 313 312 312 311 309 308 310 309 309 308 307 306 306 306 306 306 305 304 304 304 302 302 301 299 299 300 299 298 301 299 299 301 300 300 299 299 299 299 300 299 299 298 298 298 298 299 302 305 307 310 310 309 309 309 309 309 310 310 311 311 312 313 315 316 317 317 317 316 316 316 317
321 322 322 322 322 322 322 322 321 320 319 318 317 315 313 311 310 309 309 309 310 309 308 307 307 306 306 305 305 304 304 304 305 304 303 302 301 298 298 299 297 299 300 298 294 290 299 300 300 297 296 298 298 298 297 296 297 298 297 297 300 301 303 304 307 307 307 307 307 307 308 309 309 309 310 311 312 314 314 314 314 315 316 316 316
321 321 323 322 321 322 321 322 322 320 318 318 317 315 314 313 312 311 310 310 309 308 307 305 305 305 305 304 302 303 304 304 304 302 301 300 297 296 296 296 298 296 297 293 289 291 289 290 292 296 294 295 296 295 295 296 296 297 296 296 297 299 300 301 303 304 305 305 306 306 305 306 307 307 307 309 310 311 312 312 313 313 313 314 315
321 322 320 321 321 321 321 321 319 318 317 316 315 314 314 312 310 309 308 308 308 307 306 306 306 305 305 304 302 303 303 303 303 302 301 301 300 298 296 293 293 292 291 292 289 291 293 292 293 297 294 294 294 292 294 294 295 295 294 295 295 297 298 299 301 303 304 304 304 304 304 304 305 306 306 306 307 307 309 310 310 311 311 311 311
319 319 319 320 320 319 317 317 316 315 315 314 313 312 312 311 310 309 308 307 307 306 305 305 304 304 303 302 302 300 301 300 301 300 300 300 299 299 298 295 292 288 290 287 287 286 290 290 288 288 291 292 294 293 294 294 294 295 294 294 294 294 296 298 300 301 302 302 302 302 303 303 303 304 304 304 304 304 304 305 306 306 306 307 308
317 317 317 317 316 315 314 313 313 313 313 313 312 311 310 309 308 307 306 305 305 304 303 302 301 301 299 299 299 298 298 298 298 298 297 297 297 297 298 296 294 291 288 286 285 286 287 291 290 289 291 293 293 292 293 292 293 293 293 292 292 292 294 297 298 300 300 300 300 301 301 302 302 303 302 302 303 303 304 304 305 305 306 306 307
316 314 314 313 312 308 311 310 310 309 307 306 306 307 306 305 305 304 303 301 298 297 297 297 297 296 295 294 295 294 294 295 294 293 292 294 292 295 296 295 295 291 290 287 286 288 287 289 290 288 289 287 290 291 289 291 293 292 291 291 291 291 294 295 296 297 297 298 299 300 300 300 301 301 301 301 302 302 303 303 303 304 305 305 307
311 312 311 310 308 307 307 304 303 304 303 302 302 301 301 299 299 298 297 298 295 293 294 294 293 292 291 291 290 289 290 291 289 287 287 291 293 293 294 294 292 292 290 288 285 286 288 286 287 287 289 288 289 289 289 288 290 291 290 290 290 291 292 291 293 294 295 296 296 297 298 299 299 300 300 300 301 302 302 303 302 302 303 304 304
311 310 308 306 304 302 300 300 299 299 299 298 297 296 295 294 294 293 293 294 292 290 288 289 291 290 290 288 287 286 287 288 288 287 287 287 290 293 293 293 292 291 291 289 286 285 288 287 288 286 286 288 289 287 287 288 289 290 288 289 289 290 289 289 291 292 293 295 296 296 297 297 298 298 298 298 299 299 300 300 301 301 302 302 301
306 304 303 302 301 300 299 298 298 297 296 294 294 293 292 291 291 291 292 291 289 288 287 286 286 286 286 286 285 285 287 288 286 285 285 286 287 289 290 290 290 290 290 287 285 284 286 287 287 287 287 288 286 286 286 286 286 287 288 287 288 287 287 288 288 290 291 292 293 294 295 296 297 296 296 296 296 297 298 300 300 299 298 299 299
301 302 300 300 299 298 297 296 295 294 293 293 293 293 292 291 290 291 290 288 286 285 285 285 285 286 286 285 284 284 285 285 284 283 283 284 285 285 285 285 286 284 284 286 285 284 283 285 284 286 285 286 284 285 284 285 285 286 286 286 286 286 287 287 287 287 290 291 291 292 294 295 295 295 295 295 296 297 298 298 296 295 295 296 296
298 298 297 297 297 297 295 293 293 292 292 291 292 292 291 290 288 287 287 287 286 285 284 284 284 285 284 284 283 283 283 283 283 282 283 283 283 283 283 282 282 281 282 284 284 283 283 283 285 283 283 284 283 284 285 285 285 285 284 284 284 286 286 286 286 286 289 290 292 292 293 294 294 294 294 294 295 295 295 295 295 294 295 296 296
296 296 297 296 295 294 293 291 291 290 289 289 290 290 288 287 287 285 285 285 284 284 284 284 284 283 283 283 283 283 282 283 283 283 283 283 282 282 282 282 281 282 283 284 285 284 282 281 282 282 283 282 283 284 285 285 284 283 283 284 284 284 284 285 285 285 287 290 291 291 292 293 293 293 293 294 294 294 294 295 295 295 295 294 294
295 294 294 294 294 293 292 291 290 289 288 288 286 286 285 286 285 284 284 284 284 283 283 283 284 283 283 283 283 283 283 283 283 283 283 283 282 282 282 282 282 282 283 284 284 284 282 281 281 282 283 282 283 283 283 282 282 283 283 283 283 283 283 284 285 286 287 289 290 290 290 291 291 292 293 293 293 293 294 294 294 294 293 293 293
294 293 293 292 292 290 289 289 288 287 286 286 285 285 284 284 283 283 283 283 283 283 283 283 283 283 283 283 283 283 283 283 282 282 283 282 282 282 282 282 282 282 282 282 283 283 283 282 282 281 282 281 281 281 281 282 281 281 282 282 283 283 283 283 283 284 285 286 286 287 288 289 290 291 291 292 292 293 293 293 293 293 292 292 292
292 291 290 289 289 288 287 286 286 286 285 285 284 284 284 284 284 283 283 283 283 283 283 283 283 283 283 283 283 283 283 282 282 282 282 282 282 281 281 281 282 282 282 282 283 282 282 281 281 281 280 281 281 279 281 282 281 281 280 280 281 283 283 283 283 285 285 285 287 289 289 289 289 288 289 290 291 291 292 292 292 292 291 291 292
291 290 289 287 286 286 285 285 284 284 284 284 283 283 283 283 283 283 283 283 283 283 283 283 283 283 283 283 282 282 282 282 282 281 281 281 281 281 281 282 283 283 282 282 282 281 281 281 280 280 280 280 280 280 281 281 280 280 282 281 280 281 282 284 284 284 285 285 284 284 287 287 287 288 289 289 290 290 291 290 290 290 290 291 292
288 287 286 285 285 284 284 284 284 284 284 283 283 283 283 283 283 283 283 283 283 283 282 282 282 282 282 282 282 282 282 283 284 284 284 284 282 282 283 283 283 282 282 281 281 281 281 280 280 281 280 279 279 279 279 280 279 279 281 282 281 282 283 283 284 285 285 284 284 284 284 284 284 284 284 284 285 287 287 288 289 289 289 291 292
285 284 284 284 285 284 284 284 284 284 284 284 285 287 286 283 283 283 283 283 283 282 282 281 281 281 281 280 281 283 282 282 283 283 284 284 285 284 283 282 282 281 281 281 280 281 280 279 279 279 278 278 278 279 279 281 281 282 281 282 281 282 283 283 283 283 284 283 283 282 283 284 284 283 283 283 284 285 285 285 285 288 289 291 291
283 283 284 284 284 284 284 284 284 284 285 286 288 289 288 287 283 282 282 282 281 281 280 280 279 279 279 279 279 281 281 281 280 283 283 284 284 285 285 285 284 282 281 280 280 281 280 279 279 279 279 278 279 280 280 281 282 282 281 282 282 282 281 279 278 281 285 284 282 281 281 283 283 281 282 283 283 284 284 284 288 288 288 290 290
282 282 283 283 283 283 284 284 284 284 285 288 289 289 288 287 285 282 281 281 280 280 280 279 279 279 279 279 280 279 279 280 280 281 282 284 284 285 285 284 284 284 285 283 281 280 280 279 278 279 279 279 280 281 281 281 281 281 282 282 282 281 280 280 279 278 282 284 281 280 280 282 282 282 281 282 283 284 284 287 288 288 289 290 290
282 282 282 282 282 283 283 283 283 284 285 289 288 288 288 287 286 282 280 280 280 279 279 279 279 279 279 279 278 279 278 280 280 281 281 282 284 284 284 284 284 284 284 285 285 282 281 280 280 279 280 280 280 281 282 282 283 281 282 281 281 281 281 280 280 280 281 283 281 279 278 280 282 281 280 282 282 283 283 285 287 288 289 289 290
282 281 281 281 282 282 282 283 283 283 284 287 288 287 287 286 285 283 279 279 279 279 279 278 278 278 278 277 277 277 277 278 280 282 282 282 282 281 281 280 279 281 283 283 283 283 283 282 281 280 281 282 280 281 282 283 282 281 281 280 281 280 279 279 280 280 281 283 280 279 277 279 281 281 280 281 283 282 282 285 287 288 289 289 289
281 281 281 281 281 281 282 282 282 283 284 287 287 287 286 286 285 282 279 279 279 278 279 279 278 278 276 277 276 277 277 279 281 284 282 282 281 280 280 280 280 279 279 279 280 281 281 281 280 280 280 281 281 282 283 283 283 282 282 281 280 279 280 281 281 281 280 279 280 279 275 279 282 280 280 281 281 281 281 284 286 287 288 288 288
280 280 280 280 280 280 281 282 282 282 283 286 286 286 285 285 283 280 279 279 279 279 279 278 277 276 276 276 276 276 277 279 282 285 284 281 278 276 277 277 277 278 279 281 282 282 281 280 280 280 280 281 283 283 283 282 282 282 282 281 280 280 279 277 277 278 278 280 281 279 278 278 281 279 279 280 280 279 281 282 285 286 287 287 287
279 279 279 279 279 280 280 280 282 282 282 284 285 284 284 284 281 279 280 279 279 278 278 277 276 276 276 277 277 278 279 280 283 284 284 282 276 275 275 275 276 277 278 279 280 281 281 281 282 282 283 283 284 284 284 284 282 282 279 278 277 278 276 275 276 277 277 279 280 281 279 277 279 279 278 279 279 279 280 281 282 284 285 286 286
278 278 278 277 277 278 278 279 281 281 282 283 284 283 283 282 281 280 280 279 278 277 276 276 276 275 276 279 279 279 280 280 283 283 283 281 276 275 274 275 276 275 276 277 276 276 278 279 280 281 281 282 282 282 282 282 282 281 278 275 276 277 275 275 274 276 277 278 279 281 277 277 279 279 277 278 279 279 280 280 281 281 283 283 285
278 277 277 276 276 276 276 278 280 281 281 283 284 283 283 282 281 280 279 278 276 275 275 275 276 276 275 277 280 281 281 282 283 283 282 280 276 275 276 275 274 274 275 274 272 272 272 272 274 276 278 279 279 278 278 280 280 280 278 277 277 276 274 274 274 274 273 275 279 281 276 276 277 278 277 275 273 276 279 279 279 279 279 279 280
Wind_Speed
4 4 3 3 3 2 2 2 1 1 1 1 1 1 1 0 1 0 0 1 2 4 2 1 1 2 2 3 3 2 2 2 3 4 4 4 4 5 7 8 7 8 10 10 11 11 12 14 14 14 14 12 12 12 12 12 10 12 11 12 13 14 15 15 13 12 12 13 13 13 13 14 13 13 14 16 15 15 15 14 14 15 16 15 16
5 4 4 4 3 2 2 3 3 1 1 2 2 1 1 0 0 1 1 1 2 3 2 3 3 3 2 2 4 3 3 3 3 3 4 4 4 5 8 8 7 8 9 10 11 11 12 13 14 14 15 15 14 15 15 15 15 14 13 14 15 15 15 15 15 15 14 15 15 14 15 15 16 15 15 16 16 16 17 17 17 17 16 17 16
5 5 4 4 3 3 4 3 2 3 2 3 1 2 1 1 1 1 1 1 2 0 0 2 2 3 2 2 4 3 3 3 3 3 4 4 4 4 5 8 8 8 9 10 11 12 13 13 15 15 16 17 17 17 16 16 16 17 16 16 16 17 17 17 17 17 18 16 17 17 15 16 16 16 16 17 17 17 18 18 18 18 18 18 18
5 5 5 4 4 4 4 3 4 4 3 3 2 1 1 0 0 0 0 0 2 1 0 0 2 2 1 2 2 2 3 3 3 3 4 5 5 4 5 5 7 8 8 9 11 11 13 14 15 16 17 18 18 19 19 18 18 18 18 19 19 19 19 20 19 19 19 18 20 20 17 19 17 17 17 18 19 19 19 19 19 20 20 18 19
5 6 6 5 5 5 5 4 4 3 3 3 2 1 1 1 1 0 1 1 2 3 3 2 3 3 3 3 3 3 2 2 3 3 5 4 5 5 5 5 5 7 9 8 9 11 12 14 15 16 17 19 19 19 20 21 20 20 20 20 20 20 19 19 19 20 19 19 19 21 20 20 19 18 19 19 20 20 21 21 20 20 21 21 20
5 5 5 5 5 5 5 5 4 3 2 2 3 2 2 1 3 1 2 1 2 3 3 5 3 3 3 3 4 4 3 4 4 5 4 5 4 4 5 5 5 5 5 8 8 9 11 12 14 15 17 18 20 20 20 20 21 22 21 21 21 22 22 21 15 18 21 18 21 21 21 23 22 21 20 22 23 21 20 21 21 22 22 22 21
5 6 6 5 5 5 5 6 4 3 3 3 3 2 2 4 2 2 2 1 1 2 1 3 3 5 5 3 5 5 4 5 4 4 4 4 4 4 5 5 5 5 5 5 6 8 9 11 12 14 15 17 18 20 22 22 22 23 23 23 23 24 25 24 23 22 17 20 19 20 22 21 23 23 25 25 23 23 22 23 23 22 23 24 23
6 5 5 5 5 5 6 4 4 3 3 3 3 4 4 3 2 2 2 4 2 3 1 3 3 5 5 4 5 4 5 4 5 4 4 3 5 4 5 5 5 5 5 5 5 5 8 10 12 13 14 15 17 18 19 21 23 24 24 25 25 25 25 25 26 27 24 21 19 17 20 22 24 25 25 23 25 25 26 25 26 24 23 24 25
6 6 5 5 5 5 5 5 4 5 3 3 3 4 4 3 3 3 3 3 2 4 4 2 4 4 5 5 5 5 6 6 5 5 3 4 5 4 4 5 4 5 4 5 5 4 5 8 10 12 12 13 15 17 18 20 21 22 24 24 25 26 25 25 26 26 25 24 23 23 23 22 23 27 28 26 25 25 26 27 29 28 27 27 26
6 6 6 6 5 5 5 4 4 4 4 4 4 2 3 4 4 3 4 2 3 3 5 3 2 4 5 6 6 6 6 6 6 5 5 6 5 6 6 4 4 5 5 5 4 4 5 6 8 9 11 10 13 15 17 18 19 20 21 23 24 25 25 25 26 26 26 26 26 26 26 23 23 23 26 26 28 26 25 26 29 28 30 28 28
6 6 6 6 5 5 5 4 4 4 4 4 3 3 3 3 4 3 2 3 3 3 4 4 4 4 5 6 6 7 6 5 6 6 6 5 6 6 4 6 4 5 5 5 3 4 5 5 5 5 6 10 11 14 16 18 18 19 20 21 22 23 25 25 25 26 25 26 26 25 26 26 27 23 25 25 26 30 27 27 29 30 30 28 30
7 7 6 6 5 5 6 6 5 4 4 5 5 5 6 5 5 5 3 2 2 3 3 2 3 4 6 6 6 5 7 7 6 5 4 4 5 4 5 4 4 5 5 4 4 4 4 5 5 5 5 7 10 11 14 15 16 17 19 20 21 22 24 25 25 25 25 25 27 27 26 27 26 27 28 26 26 25 25 29 30 29 31 28 31
7 7 7 6 6 5 5 5 6 5 5 6 7 8 7 6 3 3 4 3 2 2 2 2 1 4 4 4 5 6 6 6 6 4 4 5 4 4 4 5 5 5 3 3 5 4 5 5 5 5 5 5 7 9 11 13 12 15 17 19 21 22 23 24 25 25 25 26 26 27 28 27 28 29 29 28 28 29 26 24 27 29 28 29 28
7 7 7 7 6 5 6 6 6 7 7 6 3 2 2 4 4 2 3 4 3 2 3 2 2 3 4 5 4 5 6 3 4 4 4 5 3 3 4 4 6 5 4 5 5 5 5 6 5 5 5 6 6 6 7 7 8 13 17 18 19 21 22 23 25 27 27 28 28 28 27 28 28 29 29 28 29 29 30 30 31 26 25 29 27
7 7 7 7 7 7 6 5 5 6 5 6 5 4 4 5 5 6 3 1 2 2 3 5 4 0 2 2 3 6 4 2 2 2 6 4 1 3 4 4 5 4 4 5 5 5 5 4 5 5 6 6 6 6 6 7 9 12 15 17 17 19 21 22 23 25 26 26 26 26 26 27 27 27 27 28 28 28 30 30 31 31 27 29 27
8 7 7 7 7 7 6 5 5 5 6 5 5 6 5 3 3 3 1 2 2 2 1 3 4 0 4 0 2 1 5 2 3 6 5 1 0 4 1 3 3 5 4 5 6 5 6 5 5 5 5 6 6 6 7 7 10 13 14 14 15 18 20 22 23 24 24 25 25 25 25 26 27 27 28 29 30 30 31 31 31 32 32 31 31
7 9 9 9 8 8 8 7 5 6 6 6 6 8 8 6 6 5 5 5 4 3 1 3 4 4 2 1 3 1 2 3 8 5 1 1 3 3 1 2 4 4 4 6 5 5 5 6 6 5 6 6 6 6 6 7 7 7 10 12 14 17 18 21 23 24 24 25 25 26 26 26 26 27 28 28 28 29 30 31 31 31 33 34 33
6 7 7 7 8 8 8 8 8 7 7 7 6 5 6 8 8 8 7 6 6 2 2 0 2 3 4 3 2 3 5 2 4 5 1 6 2 1 3 3 3 3 4 6 6 6 5 6 5 6 5 5 6 6 6 6 7 7 7 9 17 19 19 20 22 23 23 24 24 25 26 27 27 28 28 28 29 30 30 30 31 32 32 33 34
6 6 7 8 8 7 7 8 9 9 9 8 7 8 7 7 6 5 7 5 3 3 5 4 1 2 5 5 3 1 1 1 3 3 11 2 3 1 2 2 2 1 4 5 6 6 6 5 5 5 5 5 5 5 5 6 7 8 12 15 17 18 18 19 20 21 23 24 25 25 25 26 28 28 29 29 29 29 30 30 31 31 31 32 32
8 7 6 7 7 7 8 8 6 5 6 6 7 7 5 4 6 7 4 5 6 6 5 4 4 2 2 4 4 2 1 2 3 4 3 8 13 5 2 3 6 5 6 7 8 6 6 6 7 7 6 6 5 5 5 6 6 6 7 13 17 17 18 19 20 20 21 23 25 26 27 27 28 28 29 30 31 30 30 30 31 31 31 31 32
8 8 7 7 7 7 6 6 6 6 6 4 4 4 6 5 5 5 6 6 5 6 4 6 5 5 2 0 1 1 1 1 2 3 4 3 8 6 11 9 8 5 6 6 8 8 8 8 6 5 6 6 5 6 6 6 6 6 7 13 17 19 19 20 20 21 22 24 25 26 28 28 29 30 30 30 30 30 32 31 31 32 32 31 32
7 8 8 8 7 7 7 7 7 6 7 8 8 6 5 6 7 6 5 5 4 5 6 3 4 3 2 3 2 2 1 0 1 1 2 5 8 7 7 8 11 8 9 7 8 11 10 9 10 7 6 5 5 5 5 6 6 6 7 12 15 18 20 20 22 23 26 26 27 28 28 29 29 30 30 30 30 32 33 33 33 33 33 32 33
7 7 8 7 8 7 7 7 7 6 6 6 7 7 6 6 6 5 5 6 5 5 3 3 3 3 2 3 3 3 2 1 1 2 2 3 4 6 6 4 8 13 2 1 7 9 9 8 7 8 8 8 8 7 7 7 7 8 13 12 14 17 19 23 25 25 25 26 27 28 27 28 29 29 30 30 30 31 31 32 34 34 34 33 34
6 6 7 7 7 7 7 7 6 5 6 5 4 5 4 4 5 5 5 4 4 5 3 3 3 3 3 2 2 3 2 2 2 2 2 3 4 7 6 7 6 4 6 5 4 8 7 7 6 6 6 6 7 7 7 7 8 13 11 12 13 18 22 24 25 25 25 26 26 27 27 27 28 29 29 29 30 30 31 31 32 34 34 35 35
6 7 7 8 7 6 7 7 6 7 6 5 5 5 4 4 4 4 5 5 5 5 4 4 4 4 4 2 4 2 2 1 0 1 1 2 2 6 4 3 8 9 5 4 3 2 7 7 6 4 4 6 7 6 7 6 7 11 15 10 16 20 20 22 24 24 25 25 26 27 27 28 28 29 29 30 30 31 32 32 32 32 33 33 33
7 8 7 6 6 7 6 6 6 5 5 5 5 5 6 6 5 5 5 4 4 4 4 4 3 4 4 4 3 3 3 3 3 3 3 3 2 4 6 4 5 10 5 1 2 3 4 3 4 5 5 5 5 6 6 8 8 12 16 13 13 18 20 21 23 25 26 26 26 27 27 27 28 28 29 30 30 30 31 31 32 32 33 33 34
8 7 5 6 7 6 6 6 5 5 5 5 5 5 5 5 4 5 4 4 6 6 5 5 6 6 6 5 4 3 4 4 4 4 3 3 2 3 4 10 7 3 4 2 3 4 7 2 3 6 3 6 5 4 6 7 11 17 17 11 9 14 20 23 25 26 26 27 27 27 28 28 29 29 30 30 30 31 31 32 32 33 33 34 34
5 5 5 6 6 6 4 4 4 4 4 6 6 5 6 6 6 6 6 4 6 9 7 6 6 7 6 4 5 5 5 4 4 4 4 3 3 3 3 2 5 10 6 4 1 3 3 2 3 3 7 7 9 9 11 12 10 16 14 10 11 11 16 22 25 26 26 27 27 28 28 29 29 30 30 30 30 31 32 32 32 33 35 35 34
5 5 5 4 5 5 5 5 5 6 6 6 6 6 7 7 7 7 7 6 7 7 7 7 6 6 5 6 6 5 4 4 5 4 4 3 2 2 3 3 3 3 6 7 5 0 2 0 1 2 7 10 7 6 9 9 11 13 10 9 10 9 16 23 25 26 26 27 28 29 29 29 29 30 31 31 31 32 32 33 33 34 34 34 36
6 5 5 5 6 8 8 5 7 8 8 7 7 7 7 7 7 6 6 8 8 6 7 7 6 4 5 6 5 5 4 5 4 3 2 3 3 3 4 4 3 1 3 6 9 1 3 2 3 4 5 4 6 6 5 6 10 12 9 9 9 9 18 20 22 24 25 27 28 28 29 29 30 31 31 31 32 32 33 33 34 35 35 36 37
6 6 7 7 7 7 10 7 4 7 9 7 7 7 7 8 7 7 4 7 9 8 5 7 4 5 8 6 4 4 3 4 3 3 3 3 3 2 3 3 3 3 2 3 6 4 5 8 2 3 6 5 7 8 5 6 9 12 9 9 9 13 17 13 17 20 22 24 25 26 28 29 30 30 31 31 32 33 34 34 35 36 36 37 36
6 7 7 8 9 9 8 8 7 6 8 7 7 8 7 7 7 7 4 8 9 10 9 6 4 6 6 7 5 4 3 4 4 4 4 5 4 3 3 3 2 2 2 3 5 13 4 4 7 3 4 10 8 9 10 6 8 12 9 9 11 13 10 9 12 17 20 23 26 26 27 28 28 30 30 31 32 33 34 34 34 34 35 35 34
7 8 8 7 6 10 10 7 6 6 9 8 7 8 8 8 6 7 7 9 10 7 9 7 5 5 5 7 5 4 3 5 4 4 5 4 4 4 3 2 2 2 3 3 6 11 9 2 6 8 8 9 10 8 13 12 10 8 10 8 10 10 10 8 9 13 20 25 25 26 28 28 30 29 29 30 30 31 31 32 32 32 33 34 34
5 9 8 8 9 9 9 7 6 6 8 9 7 8 9 9 7 7 8 10 10 8 6 6 5 4 5 6 5 4 3 5 5 5 3 3 3 2 2 2 1 2 3 3 5 7 13 10 5 6 5 7 11 7 8 14 16 12 11 10 9 9 8 9 9 9 20 22 26 28 28 29 29 29 30 30 30 31 31 31 31 34 35 35 35
6 6 8 7 9 10 9 7 8 8 8 8 7 9 8 10 10 8 7 8 9 8 7 6 5 4 6 6 5 4 4 6 4 3 3 3 2 3 3 2 3 3 3 3 5 7 10 13 7 7 9 8 7 12 11 9 10 11 14 12 11 9 7 7 9 8 14 22 28 28 29 29 29 29 29 30 30 30 33 34 35 35 34 33 33
9 6 8 9 8 8 9 8 8 9 8 8 8 9 11 11 10 9 8 8 7 7 7 7 6 5 5 6 4 4 3 5 4 3 3 3 3 3 3 3 3 3 3 3 3 6 8 11 11 8 8 10 8 8 9 8 9 12 11 12 10 10 9 8 10 9 11 20 26 28 28 27 27 28 29 30 30 31 31 32 32 32 32 34 34
8 8 7 7 8 9 9 9 9 8 8 9 11 10 9 8 9 9 8 8 9 8 8 7 5 6 6 6 4 4 3 5 4 4 3 4 3 3 3 3 4 4 4 4 4 4 7 10 13 9 6 6 7 7 8 14 15 13 10 9 9 11 12 8 9 11 17 20 19 21 22 24 26 27 29 31 31 31 31 32 32 32 35 34 32
8 7 9 6 8 9 8 8 9 8 7 8 10 9 9 8 9 8 8 9 8 7 7 6 6 5 6 5 4 4 5 5 4 3 3 4 4 5 5 6 5 5 5 4 4 5 6 8 9 13 10 9 11 9 6 8 12 14 17 16 12 8 11 11 7 6 6 10 12 11 12 15 20 29 30 30 32 31 30 30 31 32 32 29 30
11 9 8 9 7 10 8 8 9 9 9 9 9 8 8 7 8 9 9 8 8 7 7 7 6 6 6 5 5 5 6 5 5 4 4 5 5 6 5 5 5 5 6 5 6 6 6 8 9 7 10 7 7 12 11 9 8 6 11 16 20 17 14 11 11 10 6 5 10 20 18 15 19 19 24 31 31 30 29 29 29 31 29 27 28
10 11 10 10 8 8 8 8 7 8 9 8 8 7 7 8 8 8 8 9 9 8 8 7 6 6 6 6 6 5 6 5 5 5 5 5 5 5 4 4 5 6 6 6 6 6 6 7 8 10 9 10 9 6 8 7 9 8 8 9 15 17 16 16 13 12 11 6 7 10 15 18 16 18 20 22 26 25 25 24 25 25 26 26 27
8 10 10 11 11 10 8 9 8 7 8 7 6 8 9 8 8 9 8 8 9 9 8 7 7 6 6 6 5 6 7 9 11 9 9 7 4 4 5 4 5 5 6 6 6 6 6 6 7 7 8 8 7 9 11 12 11 12 11 11 12 11 14 15 15 12 8 13 10 11 14 12 13 12 9 12 14 17 15 21 19 22 23 26 30
9 9 9 9 10 11 11 9 7 7 6 5 8 11 8 9 8 8 8 8 7 7 8 7 7 6 5 4 5 10 10 10 10 10 9 10 9 6 4 4 5 5 5 6 6 6 6 7 6 10 11 11 9 8 10 11 11 11 11 11 11 12 11 13 13 10 6 7 13 14 14 11 12 14 10 12 12 12 9 11 13 21 27 34 34
9 8 9 10 8 8 9 9 9 7 7 7 13 14 15 13 9 8 9 8 7 7 7 7 6 5 4 4 4 5 5 6 5 7 8 9 7 8 9 9 8 6 5 6 5 6 7 8 7 7 9 12 10 8 9 10 11 12 11 9 11 10 12 15 17 16 9 14 15 15 15 11 8 14 14 13 12 12 12 13 27 35 34 33 33
8 7 8 8 8 7 8 8 9 8 8 11 15 15 15 14 10 8 7 8 7 7 6 6 5 5 4 5 4 3 3 3 1 1 2 4 6 8 9 9 10 10 9 6 7 7 7 8 9 7 8 10 12 10 8 10 11 12 11 11 11 12 12 13 13 14 13 12 14 14 17 15 10 13 14 13 10 11 12 25 33 32 33 33 33
8 9 8 8 8 6 8 10 9 8 8 12 15 16 15 15 14 10 7 7 8 7 6 5 5 5 5 5 3 2 2 3 2 2 2 3 3 7 7 8 7 9 10 12 12 8 7 8 9 10 8 9 13 11 9 11 12 12 13 11 11 10 12 11 12 11 15 10 10 11 16 16 10 15 15 13 9 10 13 20 31 33 34 32 32
9 9 8 9 7 7 7 9 9 8 8 12 15 16 15 15 14 10 7 7 7 7 6 5 5 5 4 3 3 3 1 1 3 3 1 1 1 2 3 3 3 5 10 11 12 13 10 8 9 11 10 9 10 11 12 11 11 12 11 12 11 13 13 14 15 15 12 6 7 11 14 15 11 13 17 17 13 14 11 20 31 31 32 32 31
10 10 10 9 7 7 7 8 9 8 7 14 15 15 15 15 15 9 7 7 7 6 6 5 5 4 3 3 2 1 1 2 3 5 3 3 3 3 3 5 6 5 6 5 5 6 7 8 8 9 11 10 10 11 10 9 10 9 10 11 12 13 13 14 15 13 10 2 7 8 13 14 8 12 16 16 15 14 12 18 25 28 31 33 35
7 8 6 7 9 8 7 8 9 10 8 14 14 14 15 15 14 7 7 7 7 7 5 5 4 3 3 2 1 0 1 2 5 10 8 5 4 4 5 5 5 5 5 5 11 12 10 9 9 10 10 12 15 13 12 12 10 10 10 11 10 8 12 12 12 12 12 5 7 10 10 13 10 9 15 16 15 15 16 13 18 25 29 35 35
9 8 8 7 6 8 8 7 9 9 8 11 13 13 13 14 9 7 6 6 6 6 5 4 3 3 2 1 0 0 1 1 6 9 11 9 4 5 5 5 5 5 5 5 10 13 14 15 16 16 17 17 17 18 18 19 15 14 10 10 10 12 12 13 12 12 14 11 8 8 11 15 10 10 14 16 16 17 13 12 13 21 30 33 34
10 8 8 8 6 5 7 7 7 9 8 10 13 12 12 12 8 6 5 6 7 6 5 4 3 2 1 2 1 1 1 1 8 9 11 7 4 4 4 5 6 5 5 7 6 7 13 14 15 15 15 15 17 17 18 20 19 14 9 11 12 12 12 11 13 12 13 10 6 8 12 11 12 11 10 15 16 10 8 10 13 19 25 23 29
9 8 7 9 7 5 5 6 8 9 8 9 12 12 11 11 7 4 4 5 6 5 5 4 3 2 1 2 4 4 4 5 9 9 10 8 4 4 5 5 5 6 6 7 7 7 7 6 6 6 6 9 8 9 11 18 16 12 9 10 9 10 11 13 13 13 12 10 10 13 13 13 12 12 11 12 14 18 11 8 12 11 13 11 14
Wind_Direction
171 184 161 194 188 188 185 190 201 219 208 212 173 184 134 92 106 93 39 353 341 323 353 355 29 18 20 323 316 311 313 309 295 289 287 283 287 281 286 290 291 295 292 294 303 309 314 314 315 311 306 311 302 295 292 287 259 252 262 262 264 267 276 295 286 274 269 267 268 270 270 269 267 265 263 265 265 260 266 270 261 261 265 267 267
181 168 173 196 176 183 198 203 214 186 213 228 190 170 194 118 1 355 1 332 322 308 3 334 341 346 2 316 311 321 304 294 290 275 279 285 272 278 282 282 285 287 287 290 290 295 303 307 307 304 302 303 298 295 301 301 304 294 270 268 271 272 273 273 275 276 273 270 258 250 262 268 268 266 264 268 266 264 267 268 265 262 262 263 263
178 176 184 186 188 188 216 195 217 211 212 242 193 178 170 193 226 257 236 235 250 257 49 326 307 315 314 312 283 317 303 298 292 285 281 272 277 275 279 282 280 279 281 283 284 285 290 295 300 302 304 304 305 304 301 297 293 291 290 281 274 277 274 273 270 270 275 272 253 251 261 265 264 267 265 263 263 264 261 258 263 260 256 260 263
184 183 187 184 191 202 203 192 219 212 202 226 241 200 186 205 149 217 223 314 319 301 288 304 307 275 256 261 262 274 278 280 288 284 284 288 283 277 276 280 282 281 281 282 281 283 283 286 291 296 299 300 301 301 303 303 301 297 295 295 292 287 283 278 281 283 276 263 266 270 264 252 259 263 262 262 258 258 263 267 263 262 264 258 255
192 188 189 189 191 196 205 212 222 203 199 212 217 204 221 289 313 36 355 0 353 326 347 5 331 317 333 314 325 306 282 298 279 280 277 278 278 280 280 278 277 283 281 277 279 281 282 284 286 290 294 296 297 298 299 301 301 301 300 298 295 293 292 292 294 271 263 269 269 269 256 247 247 252 263 259 259 260 260 261 262 259 256 253 255
186 192 186 189 188 197 207 221 223 203 190 176 204 199 219 222 254 356 321 342 302 305 349 322 320 312 310 306 323 286 308 308 289 280 274 272 270 275 272 278 279 279 283 286 283 283 286 287 288 289 291 294 295 296 296 295 296 297 297 297 297 297 295 296 293 291 277 272 276 274 268 268 269 259 254 252 259 262 256 256 255 257 260 261 259
191 185 188 187 189 201 207 223 198 179 180 196 196 197 185 218 191 222 270 280 285 273 272 286 300 307 297 299 289 292 295 277 286 279 272 268 265 260 262 266 271 275 278 283 290 291 290 290 292 293 293 292 293 295 296 296 295 295 296 296 296 297 298 298 293 277 268 270 265 273 276 279 274 262 261 262 262 259 258 255 256 256 256 257 255
190 185 183 188 191 199 213 208 189 171 190 175 171 199 205 217 213 190 253 284 321 301 20 316 315 301 300 293 282 290 286 281 279 281 271 287 278 277 272 266 268 270 271 272 276 285 286 289 290 290 291 292 293 295 295 295 295 295 295 296 298 299 301 301 300 300 301 295 288 275 269 264 269 270 265 261 259 259 254 257 261 257 249 249 253
192 188 185 187 193 201 213 197 171 175 174 170 187 207 188 208 225 202 189 258 291 288 301 273 295 296 302 304 295 293 289 281 282 280 309 292 288 284 282 275 267 266 273 272 276 273 282 278 281 285 286 289 293 293 293 294 295 296 296 297 299 303 303 304 303 303 303 297 290 285 280 274 269 270 266 262 260 256 256 259 263 258 255 251 252
189 187 193 194 193 197 200 175 164 163 169 169 210 174 183 183 232 191 183 186 249 269 290 285 254 285 298 292 291 290 280 284 284 288 283 287 286 282 275 285 291 281 275 272 273 281 282 283 281 284 286 285 289 291 294 295 297 299 301 301 302 302 303 305 306 306 306 305 304 303 299 291 273 270 270 269 265 260 258 262 262 263 260 259 255
190 185 192 190 187 192 187 182 172 175 173 185 195 186 181 195 217 224 191 234 209 217 250 272 294 298 281 278 280 275 283 282 276 275 271 261 275 284 311 289 286 277 273 277 285 286 284 284 293 296 295 294 294 296 298 299 301 302 302 302 301 302 303 306 307 307 307 307 308 308 307 303 300 292 279 276 269 265 264 262 262 262 259 256 259
191 186 191 186 189 188 188 168 174 175 188 184 195 197 201 205 218 220 218 228 220 227 230 255 274 269 272 273 268 283 277 265 270 265 278 278 272 289 283 289 285 283 285 300 304 295 293 295 294 289 289 291 292 295 297 298 299 301 302 302 303 305 307 309 309 309 310 309 309 309 308 309 309 306 302 296 285 280 273 274 268 262 262 257 255
191 182 190 185 190 185 180 176 165 175 198 214 205 198 204 199 197 192 205 229 260 218 207 172 261 304 275 282 303 261 265 274 272 299 286 270 263 269 275 294 280 284 297 341 321 312 301 294 289 291 290 292 295 294 291 294 297 300 302 305 308 309 309 312 314 314 313 312 311 310 310 310 308 306 305 303 300 297 292 283 276 276 272 263 258
187 187 188 183 183 181 188 187 176 178 195 209 233 250 169 177 158 194 203 184 231 197 182 141 320 248 329 319 285 309 281 292 315 297 287 270 265 260 275 274 280 289 340 339 314 302 292 285 295 297 295 298 297 299 302 306 304 303 304 306 307 308 310 311 312 312 312 311 309 308 307 307 307 306 304 303 302 301 299 296 293 288 282 277 271
188 186 188 189 187 180 192 193 191 172 177 194 201 210 197 198 192 203 213 274 247 242 187 173 244 69 258 314 318 346 330 357 333 305 281 263 269 261 265 266 289 319 305 313 289 289 288 296 301 298 301 302 301 299 299 300 298 298 301 302 302 304 305 307 309 309 309 308 307 306 305 305 305 304 304 304 305 305 302 302 302 302 300 293 286
184 186 195 193 189 187 177 188 202 191 187 188 188 210 201 212 200 228 186 206 226 281 199 182 196 37 325 110 275 17 319 327 306 290 285 321 165 264 272 292 297 292 310 293 291 300 297 302 294 294 293 294 293 296 298 298 300 302 301 301 301 303 306 307 309 312 312 312 311 310 309 308 307 307 307 306 306 305 305 307 306 305 305 303 298
198 190 190 195 193 192 178 182 197 201 200 199 189 201 203 205 199 192 186 207 243 233 296 180 194 198 184 358 345 6 232 290 332 299 3 103 269 243 286 258 271 284 296 293 299 292 288 297 292 290 287 288 290 293 296 298 304 304 304 303 301 302 301 307 312 316 318 317 317 316 314 313 311 310 308 306 306 304 304 303 304 305 306 306 304
198 202 197 193 193 192 185 176 192 194 196 204 205 190 199 202 201 194 202 207 226 191 254 245 197 190 210 196 180 245 316 323 22 309 283 223 205 184 227 238 255 284 308 297 297 297 288 287 285 287 287 285 288 292 293 297 296 297 296 297 301 307 309 310 314 318 318 318 318 317 315 313 312 311 310 309 307 307 306 305 306 304 302 300 301
205 200 200 199 197 194 195 192 194 199 201 200 197 195 201 207 187 189 209 190 164 220 232 237 89 228 209 223 247 227 148 352 273 323 319 351 140 157 292 258 283 262 272 271 283 294 293 283 291 289 290 287 287 287 292 291 291 291 295 298 304 307 310 312 314 315 317 318 318 317 316 315 314 313 311 308 306 305 304 304 303 303 303 302 301
201 201 201 200 202 202 200 198 197 206 178 192 200 208 200 196 184 192 179 177 179 194 225 200 204 249 186 194 209 213 171 188 206 245 257 300 304 296 202 343 342 337 324 322 315 302 302 308 307 312 306 300 288 287 289 291 291 294 295 298 306 310 314 315 314 313 312 313 315 315 315 314 313 312 310 309 307 306 306 306 305 303 301 300 299
198 199 200 199 201 206 206 208 208 199 178 198 222 209 198 189 180 177 191 192 188 199 190 216 190 215 119 287 151 155 108 174 184 162 216 257 280 286 312 332 328 328 335 320 305 312 319 314 299 284 296 300 300 291 290 290 293 293 294 302 310 314 315 316 313 311 311 313 315 315 315 314 313 311 310 309 308 306 305 304 304 303 302 301 300
200 202 199 199 197 202 202 199 198 192 193 202 196 194 198 198 194 196 190 185 193 185 204 197 182 183 165 153 139 80 73 43 132 173 258 216 261 291 306 313 319 318 327 317 328 322 321 323 323 327 321 311 301 295 292 297 298 301 301 308 313 316 318 317 319 321 320 318 317 317 315 314 313 312 311 310 308 307 306 305 304 303 301 300 301
190 200 201 198 198 196 201 206 207 202 202 197 206 196 197 193 186 175 183 194 179 175 186 190 163 143 146 163 186 179 183 165 222 215 208 270 293 284 298 296 304 311 264 314 317 303 303 308 313 318 324 325 323 325 327 322 322 322 327 326 324 324 324 325 325 324 321 319 319 319 317 316 315 314 312 311 310 308 307 306 305 304 303 303 302
187 191 200 198 196 196 201 204 204 201 202 201 196 194 190 186 167 172 183 184 174 168 171 175 160 159 160 155 125 156 140 152 217 208 227 276 283 292 311 319 297 234 295 296 257 273 285 286 284 292 304 310 311 317 324 333 334 335 338 335 330 330 329 328 327 324 322 322 321 319 317 317 315 314 313 311 309 308 307 306 306 305 304 303 303
196 196 200 195 194 197 197 204 207 205 199 183 192 180 158 160 170 165 170 173 168 155 163 173 166 164 152 141 138 139 116 120 136 19 314 323 331 314 302 295 297 300 293 315 297 281 265 279 297 294 296 303 307 330 343 346 339 339 343 338 335 334 330 329 328 326 324 323 321 320 320 319 318 316 315 313 312 311 309 308 307 305 305 304 302
198 203 204 191 190 198 200 208 210 198 186 184 178 172 157 165 165 167 166 150 135 145 142 120 109 114 113 109 90 92 86 72 61 49 35 28 346 310 311 301 281 287 296 264 298 351 319 305 292 302 307 312 338 353 356 348 344 343 343 338 336 335 331 328 327 326 326 324 323 322 321 320 318 317 315 314 313 311 310 308 307 306 305 303 302
200 207 189 184 194 195 202 209 196 181 170 160 147 147 147 133 130 120 114 129 128 114 104 116 114 101 86 92 100 81 69 59 53 48 47 34 2 322 345 327 320 231 280 290 269 226 253 287 281 283 356 21 4 7 1 349 340 340 343 339 333 330 329 327 326 327 327 327 326 324 323 322 321 319 318 317 315 314 312 311 309 307 306 304 303
194 185 189 186 189 187 175 168 151 140 145 140 136 136 127 117 116 115 105 99 107 101 101 100 99 93 92 91 85 64 61 68 68 58 52 38 29 4 14 353 324 319 309 278 139 293 243 254 314 344 20 11 11 4 357 352 341 336 339 335 329 326 326 326 327 327 328 327 326 325 324 322 321 320 319 317 316 314 312 311 310 309 307 305 304
182 183 178 173 156 140 130 132 127 123 114 107 114 116 118 113 108 109 108 99 93 100 96 87 73 85 82 77 81 73 52 58 60 58 46 41 28 31 25 10 343 304 324 310 323 132 315 73 276 303 35 12 2 3 346 332 330 327 326 325 319 317 322 324 327 327 328 327 327 325 324 323 321 320 319 318 316 315 314 313 312 310 309 308 307
169 164 149 139 131 131 118 115 122 109 101 95 93 98 99 94 99 94 108 110 96 76 79 88 84 85 80 65 68 75 60 64 73 72 73 53 49 39 36 23 9 336 301 309 300 335 252 347 50 337 2 357 348 334 328 316 317 321 316 317 316 312 318 322 323 326 326 326 326 325 324 323 322 320 319 317 316 315 314 313 312 311 309 308 307
145 141 137 134 128 123 114 97 80 113 110 106 105 94 96 102 97 102 92 96 93 88 73 80 60 74 83 86 78 78 61 73 61 39 35 52 42 45 49 31 20 19 318 304 302 280 78 327 340 30 332 340 338 323 332 318 315 318 317 311 312 312 315 317 317 320 323 325 326 326 325 323 321 319 318 318 316 315 314 313 311 310 308 308 308
142 135 132 132 133 114 96 112 117 105 102 105 105 104 97 98 106 99 99 99 94 90 76 59 71 77 90 86 63 59 37 62 47 35 35 36 27 32 28 23 359 299 290 291 267 279 343 304 304 332 359 332 340 333 324 318 314 315 314 313 314 316 317 315 319 322 324 330 329 327 325 323 322 321 320 319 317 316 314 312 310 309 309 309 308
129 124 123 121 113 115 117 113 114 123 119 114 112 107 99 100 96 108 103 97 100 94 87 68 68 84 88 87 76 62 68 77 58 44 46 38 37 48 27 13 345 346 338 315 292 294 302 123 336 328 343 341 331 344 324 325 323 320 319 320 321 322 319 320 323 328 334 331 329 326 324 323 323 322 320 319 318 316 315 315 315 314 313 311 309
112 124 124 123 116 102 106 116 132 122 107 102 109 105 108 102 94 99 103 104 90 88 96 98 88 84 88 89 75 64 63 82 60 54 56 47 53 39 30 85 23 337 335 337 298 298 301 315 330 324 327 351 319 329 329 325 325 327 329 328 321 319 321 321 324 330 329 326 324 322 321 320 319 318 317 316 316 316 315 315 314 313 311 310 310
100 105 111 109 113 119 117 115 103 92 96 100 100 108 116 115 110 90 99 103 109 116 108 104 97 97 84 80 72 62 55 69 61 60 54 50 57 58 27 35 31 354 345 355 328 316 313 308 324 329 331 332 326 321 325 320 314 322 325 326 325 321 317 317 315 316 321 322 319 317 318 317 315 316 315 315 314 313 312 313 312 311 309 308 307
111 107 113 119 113 110 109 104 100 105 103 105 102 105 107 111 109 104 103 105 112 110 108 107 108 99 100 85 67 70 76 81 71 55 46 52 50 36 36 13 31 16 356 7 339 318 312 310 318 339 325 323 320 314 311 313 323 323 321 315 314 314 315 318 314 309 314 315 316 315 314 313 314 315 314 313 312 312 310 309 308 308 307 307 306
115 113 98 102 107 107 111 112 109 105 106 111 106 100 95 98 109 116 118 115 104 100 102 109 113 104 89 87 81 71 73 76 60 53 35 40 32 36 36 18 22 10 7 356 333 311 306 309 310 316 317 306 307 316 334 334 331 325 317 314 315 315 313 309 308 310 313 314 305 300 303 310 314 313 313 312 310 309 308 307 307 306 306 306 304
106 100 108 94 107 104 100 102 104 105 104 107 106 109 111 116 119 116 109 103 103 105 104 99 94 85 88 84 78 69 62 64 52 44 37 36 32 29 29 19 11 2 355 338 328 316 308 304 305 315 330 337 329 327 337 332 328 328 329 326 320 308 307 309 296 281 293 313 316 308 310 311 307 311 311 309 307 305 305 305 304 303 302 300 299
118 109 100 100 88 103 104 105 109 114 112 108 110 118 125 125 117 111 108 104 101 96 90 87 81 79 77 73 66 57 59 54 52 43 36 34 37 27 23 18 354 349 341 339 332 324 314 313 311 308 313 326 334 321 329 329 317 314 323 328 326 325 317 314 314 314 295 279 292 301 304 305 305 303 304 303 302 303 302 301 299 300 299 295 294
113 115 114 107 102 100 106 106 109 110 110 113 119 123 120 118 114 108 109 107 102 91 85 77 74 72 68 65 61 59 58 52 50 39 42 43 32 27 4 4 346 348 344 335 334 325 322 323 321 323 324 320 322 305 302 315 324 322 336 317 311 315 315 316 319 321 321 322 310 312 312 313 308 298 292 292 292 296 298 300 298 295 295 292 290
100 107 115 118 116 109 107 111 109 107 112 121 129 129 121 111 107 105 102 100 98 96 88 79 69 66 62 59 61 59 54 45 43 46 45 39 34 22 2 358 351 351 338 335 327 322 324 324 313 304 307 315 322 326 328 333 334 324 317 313 303 301 308 310 314 318 325 330 330 324 311 312 304 300 302 300 302 305 305 305 302 301 298 298 303
112 116 117 118 120 125 121 112 108 108 109 111 117 109 103 112 107 101 98 93 94 96 96 88 74 67 62 63 59 59 49 41 39 46 45 38 33 28 4 355 345 342 332 328 326 323 321 320 323 325 319 317 324 326 319 313 311 308 311 314 309 312 309 308 302 309 334 346 327 319 311 308 310 308 311 301 304 310 314 314 312 314 313 315 313
122 123 121 120 119 117 116 117 112 106 103 107 104 99 100 98 101 104 104 100 93 91 88 89 89 76 69 68 66 52 49 37 27 34 42 36 25 14 6 0 355 344 330 329 320 323 322 318 316 316 310 309 312 318 312 310 312 315 311 310 311 314 322 323 318 317 341 354 331 320 310 313 322 311 311 307 311 312 320 313 318 319 315 314 312
119 115 111 112 112 113 110 108 104 104 101 101 100 100 100 100 101 103 104 103 97 92 93 95 97 96 83 70 59 65 45 37 5 310 293 338 10 5 359 356 353 348 344 338 329 326 325 316 313 309 307 306 310 314 313 319 318 313 313 316 318 319 313 314 312 311 322 350 326 318 310 313 330 307 306 304 308 309 317 320 320 317 317 316 314
119 116 119 115 112 111 114 110 103 100 98 103 104 104 104 103 102 99 98 97 98 101 100 98 95 90 82 78 77 58 52 13 319 264 235 248 303 0 359 353 343 344 345 343 337 327 316 310 307 305 306 308 308 312 323 320 316 309 315 318 319 314 315 308 303 306 314 336 314 309 309 312 332 314 309 309 313 316 318 318 319 320 318 317 317
120 118 114 112 112 111 113 110 105 101 98 106 106 106 106 105 103 98 99 101 101 101 98 92 89 87 87 94 84 41 357 292 271 266 274 269 340 351 349 340 343 350 355 342 333 324 315 304 302 302 308 317 312 317 319 315 314 315 317 319 326 325 319 309 307 301 302 322 318 313 301 306 327 317 311 310 317 316 312 313 321 322 321 322 325
130 129 128 123 118 116 113 110 108 104 104 109 108 109 110 110 108 104 105 103 101 97 91 90 92 94 94 93 98 91 286 298 284 13 357 18 11 9 5 7 9 6 345 325 321 332 330 321 314 310 315 319 309 308 308 315 319 319 323 325 327 310 298 299 295 295 297 358 326 313 300 303 325 315 306 311 315 312 314 314 317 325 325 325 324
106 108 102 113 122 118 115 114 111 107 107 109 111 112 115 117 115 111 113 109 106 103 96 94 88 94 108 117 144 212 263 265 348 19 18 31 21 18 23 14 3 347 328 338 341 329 320 315 313 310 308 311 316 320 329 333 329 324 326 320 299 300 312 306 306 312 305 346 339 312 299 305 319 309 308 309 311 310 315 314 317 325 329 325 323
126 123 124 119 116 119 116 114 114 111 110 115 117 119 120 125 121 118 120 112 105 105 100 94 99 90 109 115 187 237 273 271 19 24 24 32 39 36 24 7 343 336 325 349 336 329 324 318 314 313 315 319 327 333 334 335 336 338 327 316 330 329 319 319 313 315 313 330 329 321 316 306 319 321 312 309 311 308 310 316 318 327 330 325 322
128 129 125 113 99 101 113 113 117 120 118 123 123 123 125 129 129 128 129 119 110 103 105 104 96 99 58 50 6 243 333 347 33 31 32 41 52 39 18 348 340 338 334 343 332 324 325 323 320 325 328 334 337 337 342 340 336 337 333 333 325 317 321 317 316 318 310 316 325 339 313 306 316 316 312 307 304 295 316 314 326 323 325 322 318
122 122 118 115 108 95 95 107 111 113 120 129 130 127 127 129 126 112 115 112 112 111 116 124 133 113 27 342 37 51 48 44 40 40 36 49 60 31 8 352 350 342 342 350 331 326 326 324 318 321 326 336 338 349 339 333 332 343 340 325 317 319 325 325 321 318 312 316 334 338 317 317 325 319 328 319 317 310 315 328 321 319 318 316 316